Terug naar catalogus

HULIANWANG DIGUI-135

ActiefCommunicatieLEO
NORAD 67243·PAYLOAD·🇨🇳 China

Gelanceerd Dec 25, 2025 vanaf Wenchang Space Launch Site

Loading…

Volgende Passages (komende 24 uur)

TLE

VersSource: Space-Track

Epoch: Sep 14, 2026, 09:35 UTC

1 67243U 25311H   26257.39986473 -.00000075  00000-0  10468-3 0  9990
2 67243  50.0012 155.9179 0000258 304.2702  55.8146 13.29326710 35205

Volg HULIANWANG DIGUI-135 in realtime met AllMySat

Download on the App Store